Time,TemperatureF,DewpointF,PressureIn,WindDirection,WindDirectionDegrees,WindSpeedMPH,WindSpeedGustMPH,Humidity,HourlyPrecipIn,Conditions,Clouds,dailyrainin,SoftwareType,DateUTC
2013-03-09 00:00:00,28.8,23.0,30.20,ENE,67,5.6,15.2,78,0.00,,,0.00,Rainwise IP-100,2013-03-09 05:00:00,
2013-03-09 00:05:00,28.8,23.0,30.21,NW,315,2.1,10.7,78,0.00,,,0.00,Rainwise IP-100,2013-03-09 05:05:00,
2013-03-09 00:10:00,28.7,23.0,30.20,ENE,67,5.6,12.4,78,0.00,,,0.00,Rainwise IP-100,2013-03-09 05:10:00,
2013-03-09 00:15:00,28.6,23.0,30.20,NNE,22,4.4,15.9,78,0.00,,,0.00,Rainwise IP-100,2013-03-09 05:15:00,
2013-03-09 00:20:00,28.6,23.0,30.20,NNE,22,10.0,16.1,78,0.00,,,0.00,Rainwise IP-100,2013-03-09 05:20:00,
2013-03-09 00:25:00,28.5,24.0,30.20,NNW,337,8.4,18.2,79,0.00,,,0.00,Rainwise IP-100,2013-03-09 05:25:00,
2013-03-09 00:28:00,28.5,24.0,30.20,NNW,337,9.1,19.4,79,0.00,,,0.00,Rainwise IP-100,2013-03-09 05:28:00,
2013-03-09 00:33:00,28.4,23.0,30.20,ENE,67,2.6,15.9,79,0.00,,,0.00,Rainwise IP-100,2013-03-09 05:33:00,
2013-03-09 00:38:00,28.3,23.0,30.20,ENE,67,5.6,9.1,79,0.00,,,0.00,Rainwise IP-100,2013-03-09 05:38:00,
2013-03-09 00:43:00,28.2,23.0,30.20,ENE,67,3.7,11.7,80,0.00,,,0.00,Rainwise IP-100,2013-03-09 05:43:00,
2013-03-09 00:48:00,28.1,23.0,30.20,NNW,337,4.0,16.1,80,0.00,,,0.00,Rainwise IP-100,2013-03-09 05:48:00,
2013-03-09 00:53:00,28.1,23.0,30.20,North,360,4.4,11.0,80,0.00,,,0.00,Rainwise IP-100,2013-03-09 05:53:00,
2013-03-09 00:58:00,28.0,23.0,30.20,East,90,3.3,14.5,80,0.00,,,0.00,Rainwise IP-100,2013-03-09 05:58:00,
2013-03-09 01:03:00,27.9,23.0,30.20,North,360,8.4,13.1,81,0.00,,,0.00,Rainwise IP-100,2013-03-09 06:03:00,
2013-03-09 01:08:00,27.9,23.0,30.21,NNE,22,4.4,11.9,81,0.00,,,0.00,Rainwise IP-100,2013-03-09 06:08:00,
2013-03-09 01:13:00,27.8,23.0,30.20,NNE,22,3.7,14.0,81,0.00,,,0.00,Rainwise IP-100,2013-03-09 06:13:00,
2013-03-09 01:18:00,27.7,23.0,30.20,NNE,22,2.1,13.5,81,0.00,,,0.00,Rainwise IP-100,2013-03-09 06:18:00,
2013-03-09 01:23:00,27.6,23.0,30.19,WNW,292,5.6,15.6,82,0.00,,,0.00,Rainwise IP-100,2013-03-09 06:23:00,
2013-03-09 01:28:00,27.6,23.0,30.20,WNW,292,3.5,12.1,82,0.00,,,0.00,Rainwise IP-100,2013-03-09 06:28:00,
2013-03-09 01:33:00,27.5,23.0,30.20,NNE,22,2.6,13.8,82,0.00,,,0.00,Rainwise IP-100,2013-03-09 06:33:00,
2013-03-09 01:38:00,27.4,23.0,30.20,NNE,22,11.7,15.6,82,0.00,,,0.00,Rainwise IP-100,2013-03-09 06:38:00,
2013-03-09 01:43:00,27.4,23.0,30.19,NW,315,2.1,12.4,82,0.00,,,0.00,Rainwise IP-100,2013-03-09 06:43:00,
2013-03-09 01:48:00,27.3,23.0,30.19,North,360,5.8,13.8,82,0.00,,,0.00,Rainwise IP-100,2013-03-09 06:48:00,
2013-03-09 01:52:00,27.3,23.0,30.19,ENE,67,1.9,12.4,82,0.00,,,0.00,Rainwise IP-100,2013-03-09 06:52:00,
2013-03-09 01:57:00,27.3,23.0,30.19,North,360,5.8,12.8,82,0.00,,,0.00,Rainwise IP-100,2013-03-09 06:57:00,
2013-03-09 02:02:00,27.2,23.0,30.19,NNE,22,8.9,10.3,82,0.00,,,0.00,Rainwise IP-100,2013-03-09 07:02:00,
2013-03-09 02:07:00,27.2,23.0,30.19,WNW,292,4.2,13.3,83,0.00,,,0.00,Rainwise IP-100,2013-03-09 07:07:00,
2013-03-09 02:12:00,27.1,23.0,30.19,NNW,337,6.3,15.6,83,0.00,,,0.00,Rainwise IP-100,2013-03-09 07:12:00,
2013-03-09 02:17:00,27.0,23.0,30.19,NE,45,1.6,15.2,83,0.00,,,0.00,Rainwise IP-100,2013-03-09 07:17:00,
2013-03-09 02:22:00,27.0,23.0,30.18,NNW,337,3.0,11.2,83,0.00,,,0.00,Rainwise IP-100,2013-03-09 07:22:00,
2013-03-09 02:27:00,27.0,23.0,30.19,NW,315,1.4,13.8,83,0.00,,,0.00,Rainwise IP-100,2013-03-09 07:27:00,
2013-03-09 02:32:00,26.9,23.0,30.18,North,360,5.8,17.3,83,0.00,,,0.00,Rainwise IP-100,2013-03-09 07:32:00,
2013-03-09 02:37:00,26.8,23.0,30.19,ENE,67,2.8,15.4,83,0.00,,,0.00,Rainwise IP-100,2013-03-09 07:37:00,
2013-03-09 02:42:00,26.8,23.0,30.19,NNW,337,8.4,15.9,83,0.00,,,0.00,Rainwise IP-100,2013-03-09 07:42:00,
2013-03-09 02:47:00,26.7,23.0,30.19,NE,45,3.5,15.2,83,0.00,,,0.00,Rainwise IP-100,2013-03-09 07:47:00,
2013-03-09 02:52:00,26.6,24.0,30.20,East,90,3.0,11.2,84,0.00,,,0.00,Rainwise IP-100,2013-03-09 07:52:00,
2013-03-09 02:57:00,26.5,24.0,30.19,North,360,8.9,9.6,84,0.00,,,0.00,Rainwise IP-100,2013-03-09 07:57:00,
2013-03-09 03:02:00,26.5,24.0,30.19,ENE,67,7.7,10.5,84,0.00,,,0.00,Rainwise IP-100,2013-03-09 08:02:00,
2013-03-09 03:07:00,26.5,24.0,30.20,ESE,112,2.8,12.4,84,0.00,,,0.00,Rainwise IP-100,2013-03-09 08:07:00,
2013-03-09 03:12:00,26.4,23.0,30.20,NNW,337,3.3,11.7,84,0.00,,,0.00,Rainwise IP-100,2013-03-09 08:12:00,
2013-03-09 03:17:00,26.3,23.0,30.20,NNE,22,3.7,12.4,85,0.00,,,0.00,Rainwise IP-100,2013-03-09 08:17:00,
2013-03-09 03:22:00,26.3,23.0,30.20,NNW,337,3.0,11.7,85,0.00,,,0.00,Rainwise IP-100,2013-03-09 08:22:00,
2013-03-09 03:27:00,26.3,23.0,30.20,East,90,1.6,12.1,85,0.00,,,0.00,Rainwise IP-100,2013-03-09 08:27:00,
2013-03-09 03:32:00,26.3,23.0,30.20,NNW,337,10.3,14.0,85,0.00,,,0.00,Rainwise IP-100,2013-03-09 08:32:00,
2013-03-09 03:37:00,26.2,23.0,30.20,NE,45,3.5,13.3,85,0.00,,,0.00,Rainwise IP-100,2013-03-09 08:37:00,
2013-03-09 03:42:00,26.1,23.0,30.19,NNW,337,5.8,8.9,86,0.00,,,0.00,Rainwise IP-100,2013-03-09 08:42:00,
2013-03-09 03:47:00,26.1,23.0,30.19,NNE,22,7.0,9.6,86,0.00,,,0.00,Rainwise IP-100,2013-03-09 08:47:00,
2013-03-09 03:52:00,26.1,23.0,30.19,North,360,9.1,15.9,86,0.00,,,0.00,Rainwise IP-100,2013-03-09 08:52:00,
2013-03-09 03:57:00,26.1,23.0,30.20,ENE,67,5.1,11.2,86,0.00,,,0.00,Rainwise IP-100,2013-03-09 08:57:00,
2013-03-09 04:00:00,26.0,23.0,30.20,NNE,22,4.0,11.2,86,0.00,,,0.00,Rainwise IP-100,2013-03-09 09:00:00,
2013-03-09 04:05:00,26.0,23.0,30.19,NNE,22,6.8,9.6,86,0.00,,,0.00,Rainwise IP-100,2013-03-09 09:05:00,
2013-03-09 04:10:00,25.9,23.0,30.20,NW,315,11.0,13.3,86,0.00,,,0.00,Rainwise IP-100,2013-03-09 09:10:00,
2013-03-09 04:15:00,26.0,23.0,30.20,SSE,157,2.1,13.3,86,0.00,,,0.00,Rainwise IP-100,2013-03-09 09:15:00,
2013-03-09 04:20:00,26.0,23.0,30.20,WSW,247,3.7,13.1,86,0.00,,,0.00,Rainwise IP-100,2013-03-09 09:20:00,
2013-03-09 04:25:00,26.0,23.0,30.20,NNW,337,5.1,10.0,86,0.00,,,0.00,Rainwise IP-100,2013-03-09 09:25:00,
2013-03-09 04:30:00,25.9,23.0,30.21,ENE,67,0.0,10.3,86,0.00,,,0.00,Rainwise IP-100,2013-03-09 09:30:00,
2013-03-09 04:35:00,25.9,23.0,30.21,NNW,337,3.7,19.1,86,0.00,,,0.00,Rainwise IP-100,2013-03-09 09:35:00,
2013-03-09 04:40:00,25.9,23.0,30.22,NE,45,1.6,10.0,86,0.00,,,0.00,Rainwise IP-100,2013-03-09 09:40:00,
2013-03-09 04:45:00,25.8,23.0,30.21,North,360,8.6,9.8,86,0.00,,,0.00,Rainwise IP-100,2013-03-09 09:45:00,
2013-03-09 04:50:00,25.8,23.0,30.21,NNE,22,5.6,13.5,87,0.00,,,0.00,Rainwise IP-100,2013-03-09 09:50:00,
2013-03-09 04:55:00,25.8,23.0,30.21,SSE,157,1.6,10.5,87,0.00,,,0.00,Rainwise IP-100,2013-03-09 09:55:00,
2013-03-09 05:00:00,25.7,23.0,30.21,NNE,22,3.7,11.9,87,0.00,,,0.00,Rainwise IP-100,2013-03-09 10:00:00,
2013-03-09 05:05:00,25.6,23.0,30.21,West,270,2.3,20.8,87,0.00,,,0.00,Rainwise IP-100,2013-03-09 10:05:00,
2013-03-09 05:10:00,25.6,23.0,30.21,NNE,22,4.0,14.9,87,0.00,,,0.00,Rainwise IP-100,2013-03-09 10:10:00,
2013-03-09 05:15:00,25.6,23.0,30.21,NW,315,8.2,14.7,87,0.00,,,0.00,Rainwise IP-100,2013-03-09 10:15:00,
2013-03-09 05:20:00,25.6,23.0,30.22,ENE,67,4.0,10.7,87,0.00,,,0.00,Rainwise IP-100,2013-03-09 10:20:00,
2013-03-09 05:25:00,25.5,23.0,30.22,NNE,22,14.2,18.2,87,0.00,,,0.00,Rainwise IP-100,2013-03-09 10:25:00,
2013-03-09 05:30:00,25.4,23.0,30.22,North,360,4.0,15.4,87,0.00,,,0.00,Rainwise IP-100,2013-03-09 10:30:00,
2013-03-09 05:35:00,25.4,23.0,30.22,ENE,67,3.0,14.2,87,0.00,,,0.00,Rainwise IP-100,2013-03-09 10:35:00,
2013-03-09 05:40:00,25.3,23.0,30.22,North,360,10.7,14.5,87,0.00,,,0.00,Rainwise IP-100,2013-03-09 10:40:00,
2013-03-09 05:45:00,25.3,23.0,30.22,ESE,112,1.6,14.2,87,0.00,,,0.00,Rainwise IP-100,2013-03-09 10:45:00,
2013-03-09 05:50:00,25.3,23.0,30.23,NE,45,3.7,10.7,87,0.00,,,0.00,Rainwise IP-100,2013-03-09 10:50:00,
2013-03-09 05:55:00,25.2,23.0,30.23,North,360,5.1,12.4,87,0.00,,,0.00,Rainwise IP-100,2013-03-09 10:55:00,
2013-03-09 06:00:00,25.2,23.0,30.23,North,360,13.8,15.9,88,0.00,,,0.00,Rainwise IP-100,2013-03-09 11:00:00,
2013-03-09 06:05:00,25.2,23.0,30.23,SE,135,1.9,13.8,88,0.00,,,0.00,Rainwise IP-100,2013-03-09 11:05:00,
2013-03-09 06:10:00,25.2,23.0,30.23,NW,315,2.1,13.5,88,0.00,,,0.00,Rainwise IP-100,2013-03-09 11:10:00,
2013-03-09 06:15:00,25.3,23.0,30.24,NNW,337,4.4,11.2,88,0.00,,,0.00,Rainwise IP-100,2013-03-09 11:15:00,
2013-03-09 06:20:00,25.2,23.0,30.24,ENE,67,2.8,11.9,88,0.00,,,0.00,Rainwise IP-100,2013-03-09 11:20:00,
2013-03-09 06:25:00,25.3,23.0,30.23,East,90,3.7,6.8,88,0.00,,,0.00,Rainwise IP-100,2013-03-09 11:25:00,
2013-03-09 06:30:00,25.2,23.0,30.24,ESE,112,2.1,10.0,88,0.00,,,0.00,Rainwise IP-100,2013-03-09 11:30:00,
2013-03-09 06:35:00,25.2,23.0,30.24,ENE,67,5.4,10.7,88,0.00,,,0.00,Rainwise IP-100,2013-03-09 11:35:00,
2013-03-09 06:40:00,25.2,23.0,30.24,NNE,22,3.3,7.7,88,0.00,,,0.00,Rainwise IP-100,2013-03-09 11:40:00,
2013-03-09 06:45:00,25.3,23.0,30.25,NE,45,7.0,11.4,88,0.00,,,0.00,Rainwise IP-100,2013-03-09 11:45:00,
2013-03-09 06:50:00,25.4,23.0,30.25,NE,45,1.4,9.1,87,0.00,,,0.00,Rainwise IP-100,2013-03-09 11:50:00,
2013-03-09 06:55:00,25.6,23.0,30.25,WNW,292,4.2,17.3,86,0.00,,,0.00,Rainwise IP-100,2013-03-09 11:55:00,
2013-03-09 07:00:00,25.7,23.0,30.25,ENE,67,4.9,11.9,86,0.00,,,0.00,Rainwise IP-100,2013-03-09 12:00:00,
2013-03-09 07:05:00,25.8,23.0,30.25,North,360,6.5,12.8,86,0.00,,,0.00,Rainwise IP-100,2013-03-09 12:05:00,
2013-03-09 07:10:00,25.9,23.0,30.26,NNE,22,3.5,13.5,86,0.00,,,0.00,Rainwise IP-100,2013-03-09 12:10:00,
2013-03-09 07:15:00,26.0,23.0,30.25,NNE,22,9.1,10.7,85,0.00,,,0.00,Rainwise IP-100,2013-03-09 12:15:00,
2013-03-09 07:20:00,26.2,23.0,30.26,NE,45,6.3,16.6,85,0.00,,,0.00,Rainwise IP-100,2013-03-09 12:20:00,
2013-03-09 07:25:00,26.3,23.0,30.26,NNW,337,1.9,16.3,84,0.00,,,0.00,Rainwise IP-100,2013-03-09 12:25:00,
2013-03-09 07:30:00,26.5,24.0,30.26,North,360,5.6,11.2,84,0.00,,,0.00,Rainwise IP-100,2013-03-09 12:30:00,
2013-03-09 07:35:00,26.7,24.0,30.26,ENE,67,13.1,13.5,84,0.00,,,0.00,Rainwise IP-100,2013-03-09 12:35:00,
2013-03-09 07:40:00,26.8,24.0,30.26,NNE,22,7.7,13.1,84,0.00,,,0.00,Rainwise IP-100,2013-03-09 12:40:00,
2013-03-09 07:45:00,26.8,23.0,30.26,East,90,5.1,14.0,83,0.00,,,0.00,Rainwise IP-100,2013-03-09 12:45:00,
2013-03-09 07:50:00,26.9,23.0,30.27,SSE,157,1.6,13.5,83,0.00,,,0.00,Rainwise IP-100,2013-03-09 12:50:00,
2013-03-09 07:55:00,27.0,23.0,30.26,NE,45,5.1,17.3,83,0.00,,,0.00,Rainwise IP-100,2013-03-09 12:55:00,
2013-03-09 08:00:00,27.1,23.0,30.26,NNE,22,4.0,9.1,83,0.00,,,0.00,Rainwise IP-100,2013-03-09 13:00:00,
2013-03-09 08:05:00,27.2,23.0,30.26,North,360,2.3,12.4,83,0.00,,,0.00,Rainwise IP-100,2013-03-09 13:05:00,
2013-03-09 08:10:00,27.4,23.0,30.27,ESE,112,2.8,10.3,82,0.00,,,0.00,Rainwise IP-100,2013-03-09 13:10:00,
2013-03-09 08:15:00,27.8,23.0,30.27,ENE,67,2.3,9.8,82,0.00,,,0.00,Rainwise IP-100,2013-03-09 13:15:00,
2013-03-09 08:20:00,28.5,24.0,30.28,NE,45,6.8,12.8,81,0.00,,,0.00,Rainwise IP-100,2013-03-09 13:20:00,
2013-03-09 08:25:00,29.3,24.0,30.28,ENE,67,8.9,11.2,79,0.00,,,0.00,Rainwise IP-100,2013-03-09 13:25:00,
2013-03-09 08:30:00,29.8,24.0,30.28,NE,45,1.9,10.3,78,0.00,,,0.00,Rainwise IP-100,2013-03-09 13:30:00,
2013-03-09 08:35:00,30.1,24.0,30.28,ENE,67,7.2,12.4,77,0.00,,,0.00,Rainwise IP-100,2013-03-09 13:35:00,
2013-03-09 08:40:00,30.2,24.0,30.29,NNW,337,4.9,15.2,76,0.00,,,0.00,Rainwise IP-100,2013-03-09 13:40:00,
2013-03-09 08:45:00,30.3,24.0,30.28,ENE,67,4.0,14.0,75,0.00,,,0.00,Rainwise IP-100,2013-03-09 13:45:00,
2013-03-09 08:50:00,30.7,24.0,30.28,NE,45,2.8,14.9,75,0.00,,,0.00,Rainwise IP-100,2013-03-09 13:50:00,
2013-03-09 08:55:00,30.9,24.0,30.28,ESE,112,2.6,8.9,74,0.00,,,0.00,Rainwise IP-100,2013-03-09 13:55:00,
2013-03-09 09:00:00,30.9,24.0,30.28,SSW,202,2.6,10.7,74,0.00,,,0.00,Rainwise IP-100,2013-03-09 14:00:00,
2013-03-09 09:05:00,30.8,24.0,30.29,East,90,5.6,12.4,74,0.00,,,0.00,Rainwise IP-100,2013-03-09 14:05:00,
2013-03-09 09:10:00,31.2,23.0,30.29,East,90,6.3,7.5,73,0.00,,,0.00,Rainwise IP-100,2013-03-09 14:10:00,
2013-03-09 09:15:00,31.9,24.0,30.28,North,360,9.1,11.2,72,0.00,,,0.00,Rainwise IP-100,2013-03-09 14:15:00,
2013-03-09 09:20:00,32.7,24.0,30.29,NNW,337,3.7,9.1,71,0.00,,,0.00,Rainwise IP-100,2013-03-09 14:20:00,
2013-03-09 09:25:00,33.6,26.0,30.29,NNE,22,13.5,13.5,69,0.00,,,0.00,Rainwise IP-100,2013-03-09 14:25:00,
2013-03-09 09:30:00,33.9,24.0,30.29,ENE,67,3.7,13.5,67,0.00,,,0.00,Rainwise IP-100,2013-03-09 14:30:00,
2013-03-09 09:35:00,33.3,24.0,30.29,NNW,337,5.6,12.8,67,0.00,,,0.00,Rainwise IP-100,2013-03-09 14:35:00,
2013-03-09 09:40:00,32.2,23.0,30.29,ESE,112,1.6,10.7,68,0.00,,,0.00,Rainwise IP-100,2013-03-09 14:40:00,
2013-03-09 09:45:00,31.6,24.0,30.29,ENE,67,3.0,11.2,70,0.00,,,0.00,Rainwise IP-100,2013-03-09 14:45:00,
2013-03-09 09:50:00,31.3,23.0,30.29,East,90,5.1,10.3,71,0.00,,,0.00,Rainwise IP-100,2013-03-09 14:50:00,
2013-03-09 09:55:00,31.3,23.0,30.29,NNE,22,4.4,10.3,71,0.00,,,0.00,Rainwise IP-100,2013-03-09 14:55:00,
2013-03-09 10:00:00,31.6,24.0,30.29,NNE,22,3.3,11.2,70,0.00,,,0.00,Rainwise IP-100,2013-03-09 15:00:00,
2013-03-09 10:05:00,31.8,24.0,30.29,North,360,2.3,12.1,70,0.00,,,0.00,Rainwise IP-100,2013-03-09 15:05:00,
2013-03-09 10:10:00,32.3,23.0,30.29,ENE,67,4.7,7.2,69,0.00,,,0.00,Rainwise IP-100,2013-03-09 15:10:00,
2013-03-09 10:15:00,33.1,24.0,30.29,ESE,112,3.0,11.0,68,0.00,,,0.00,Rainwise IP-100,2013-03-09 15:15:00,
2013-03-09 10:20:00,33.7,24.0,30.29,ENE,67,4.7,14.2,67,0.00,,,0.00,Rainwise IP-100,2013-03-09 15:20:00,
2013-03-09 10:25:00,33.8,24.0,30.29,North,360,1.9,11.4,66,0.00,,,0.00,Rainwise IP-100,2013-03-09 15:25:00,
2013-03-09 10:30:00,34.0,24.0,30.29,NE,45,7.0,12.4,65,0.00,,,0.00,Rainwise IP-100,2013-03-09 15:30:00,
2013-03-09 10:35:00,34.3,24.0,30.29,ENE,67,4.7,14.5,65,0.00,,,0.00,Rainwise IP-100,2013-03-09 15:35:00,
2013-03-09 10:40:00,34.8,24.0,30.28,ESE,112,4.2,14.5,64,0.00,,,0.00,Rainwise IP-100,2013-03-09 15:40:00,
2013-03-09 10:45:00,35.0,24.0,30.29,ENE,67,2.6,13.1,64,0.00,,,0.00,Rainwise IP-100,2013-03-09 15:45:00,
2013-03-09 10:50:00,35.1,24.0,30.29,NNE,22,2.1,12.4,63,0.00,,,0.00,Rainwise IP-100,2013-03-09 15:50:00,
2013-03-09 10:55:00,35.7,24.0,30.28,NNE,22,7.7,9.8,62,0.00,,,0.00,Rainwise IP-100,2013-03-09 15:55:00,
2013-03-09 11:00:00,35.8,24.0,30.29,ENE,67,4.4,14.5,61,0.00,,,0.00,Rainwise IP-100,2013-03-09 16:00:00,
2013-03-09 11:05:00,35.8,24.0,30.29,NNE,22,8.2,14.0,61,0.00,,,0.00,Rainwise IP-100,2013-03-09 16:05:00,
2013-03-09 11:10:00,36.0,24.0,30.29,ENE,67,3.0,12.1,61,0.00,,,0.00,Rainwise IP-100,2013-03-09 16:10:00,
2013-03-09 11:15:00,36.4,24.0,30.29,SSE,157,4.7,11.2,61,0.00,,,0.00,Rainwise IP-100,2013-03-09 16:15:00,
2013-03-09 11:20:00,36.9,24.0,30.29,NNE,22,2.3,11.7,60,0.00,,,0.00,Rainwise IP-100,2013-03-09 16:20:00,
2013-03-09 11:25:00,37.4,24.0,30.29,NNE,22,5.6,8.4,59,0.00,,,0.00,Rainwise IP-100,2013-03-09 16:25:00,
2013-03-09 11:30:00,37.2,24.0,30.29,ENE,67,3.5,10.5,59,0.00,,,0.00,Rainwise IP-100,2013-03-09 16:30:00,
2013-03-09 11:35:00,37.3,24.0,30.29,ESE,112,1.4,12.6,59,0.00,,,0.00,Rainwise IP-100,2013-03-09 16:35:00,
2013-03-09 11:40:00,37.5,24.0,30.28,North,360,4.4,15.2,58,0.00,,,0.00,Rainwise IP-100,2013-03-09 16:40:00,
2013-03-09 11:45:00,37.5,24.0,30.29,North,360,4.2,12.1,58,0.00,,,0.00,Rainwise IP-100,2013-03-09 16:45:00,
2013-03-09 11:50:00,37.6,24.0,30.29,West,270,4.2,9.8,58,0.00,,,0.00,Rainwise IP-100,2013-03-09 16:50:00,
2013-03-09 11:55:00,38.0,24.0,30.29,ENE,67,2.8,10.7,57,0.00,,,0.00,Rainwise IP-100,2013-03-09 16:55:00,
2013-03-09 12:00:00,38.3,24.0,30.29,NW,315,9.6,9.6,57,0.00,,,0.00,Rainwise IP-100,2013-03-09 17:00:00,
2013-03-09 12:05:00,38.3,24.0,30.28,NNW,337,5.8,10.3,57,0.00,,,0.00,Rainwise IP-100,2013-03-09 17:05:00,
2013-03-09 12:10:00,38.1,24.0,30.28,NE,45,5.1,12.8,57,0.00,,,0.00,Rainwise IP-100,2013-03-09 17:10:00,
2013-03-09 12:15:00,37.9,24.0,30.28,North,360,4.7,12.6,57,0.00,,,0.00,Rainwise IP-100,2013-03-09 17:15:00,
2013-03-09 12:20:00,38.3,24.0,30.29,NNW,337,6.5,8.9,57,0.00,,,0.00,Rainwise IP-100,2013-03-09 17:20:00,
2013-03-09 12:25:00,38.8,24.0,30.28,ESE,112,2.3,14.0,56,0.00,,,0.00,Rainwise IP-100,2013-03-09 17:25:00,
2013-03-09 12:30:00,39.0,24.0,30.29,North,360,5.4,9.1,55,0.00,,,0.00,Rainwise IP-100,2013-03-09 17:30:00,
2013-03-09 12:35:00,38.9,24.0,30.28,ESE,112,3.7,11.0,55,0.00,,,0.00,Rainwise IP-100,2013-03-09 17:35:00,
2013-03-09 12:40:00,38.9,24.0,30.28,North,360,4.7,13.5,55,0.00,,,0.00,Rainwise IP-100,2013-03-09 17:40:00,
2013-03-09 12:45:00,39.2,24.0,30.28,ESE,112,3.0,12.1,54,0.00,,,0.00,Rainwise IP-100,2013-03-09 17:45:00,
2013-03-09 12:50:00,39.5,24.0,30.28,ENE,67,4.2,9.3,53,0.00,,,0.00,Rainwise IP-100,2013-03-09 17:50:00,
2013-03-09 12:55:00,39.6,24.0,30.29,ESE,112,4.9,11.2,53,0.00,,,0.00,Rainwise IP-100,2013-03-09 17:55:00,
2013-03-09 13:00:00,39.8,24.0,30.28,NNE,22,4.7,9.8,53,0.00,,,0.00,Rainwise IP-100,2013-03-09 18:00:00,
2013-03-09 13:05:00,39.8,24.0,30.28,North,360,3.7,12.4,53,0.00,,,0.00,Rainwise IP-100,2013-03-09 18:05:00,
2013-03-09 13:10:00,39.9,24.0,30.28,NE,45,3.5,10.5,53,0.00,,,0.00,Rainwise IP-100,2013-03-09 18:10:00,
2013-03-09 13:16:00,40.2,24.0,30.28,ESE,112,3.0,9.3,53,0.00,,,0.00,Rainwise IP-100,2013-03-09 18:16:00,
2013-03-09 13:22:00,39.8,24.0,30.28,North,360,7.0,11.4,53,0.00,,,0.00,Rainwise IP-100,2013-03-09 18:22:00,
2013-03-09 13:27:00,39.7,24.0,30.28,ENE,67,5.6,11.2,53,0.00,,,0.00,Rainwise IP-100,2013-03-09 18:27:00,
2013-03-09 13:32:00,40.1,24.0,30.28,NNW,337,1.6,10.3,52,0.00,,,0.00,Rainwise IP-100,2013-03-09 18:32:00,
2013-03-09 13:37:00,40.9,26.0,30.28,NNW,337,4.2,7.5,52,0.00,,,0.00,Rainwise IP-100,2013-03-09 18:37:00,
2013-03-09 13:42:00,41.4,24.0,30.28,North,360,4.7,12.8,51,0.00,,,0.00,Rainwise IP-100,2013-03-09 18:42:00,
2013-03-09 13:47:00,41.5,26.0,30.28,NNE,22,9.3,11.2,50,0.00,,,0.00,Rainwise IP-100,2013-03-09 18:47:00,
2013-03-09 13:52:00,41.2,24.0,30.28,SSE,157,2.6,11.9,50,0.00,,,0.00,Rainwise IP-100,2013-03-09 18:52:00,
2013-03-09 13:57:00,41.3,24.0,30.28,East,90,1.6,10.5,50,0.00,,,0.00,Rainwise IP-100,2013-03-09 18:57:00,
2013-03-09 14:02:00,41.5,26.0,30.28,NNW,337,3.0,12.4,50,0.00,,,0.00,Rainwise IP-100,2013-03-09 19:02:00,
2013-03-09 14:07:00,41.2,24.0,30.28,NNE,22,4.0,13.3,50,0.00,,,0.00,Rainwise IP-100,2013-03-09 19:07:00,
2013-03-09 14:12:00,41.1,24.0,30.28,NE,45,9.3,14.0,49,0.00,,,0.00,Rainwise IP-100,2013-03-09 19:12:00,
2013-03-09 14:17:00,41.2,24.0,30.29,NW,315,3.5,14.2,49,0.00,,,0.00,Rainwise IP-100,2013-03-09 19:17:00,
2013-03-09 14:22:00,41.4,24.0,30.28,ESE,112,3.7,13.3,49,0.00,,,0.00,Rainwise IP-100,2013-03-09 19:22:00,
2013-03-09 14:27:00,41.5,26.0,30.28,East,90,3.7,10.0,50,0.00,,,0.00,Rainwise IP-100,2013-03-09 19:27:00,
2013-03-09 14:32:00,41.5,26.0,30.28,North,360,7.2,12.8,50,0.00,,,0.00,Rainwise IP-100,2013-03-09 19:32:00,
2013-03-09 14:37:00,41.6,26.0,30.28,NNW,337,7.7,8.9,50,0.00,,,0.00,Rainwise IP-100,2013-03-09 19:37:00,
2013-03-09 14:42:00,41.5,24.0,30.28,NE,45,1.6,11.9,49,0.00,,,0.00,Rainwise IP-100,2013-03-09 19:42:00,
2013-03-09 14:47:00,41.6,24.0,30.28,ENE,67,2.8,9.8,49,0.00,,,0.00,Rainwise IP-100,2013-03-09 19:47:00,
2013-03-09 14:52:00,41.7,24.0,30.29,NE,45,2.3,12.4,49,0.00,,,0.00,Rainwise IP-100,2013-03-09 19:52:00,
2013-03-09 14:57:00,41.4,24.0,30.29,North,360,3.3,11.2,49,0.00,,,0.00,Rainwise IP-100,2013-03-09 19:57:00,
2013-03-09 15:02:00,41.4,24.0,30.29,NW,315,1.9,11.4,49,0.00,,,0.00,Rainwise IP-100,2013-03-09 20:02:00,
2013-03-09 15:07:00,41.6,24.0,30.29,NNE,22,5.4,9.1,49,0.00,,,0.00,Rainwise IP-100,2013-03-09 20:07:00,
2013-03-09 15:12:00,41.6,24.0,30.29,NE,45,4.7,10.3,48,0.00,,,0.00,Rainwise IP-100,2013-03-09 20:12:00,
2013-03-09 15:17:00,41.3,23.0,30.29,ENE,67,6.5,10.3,48,0.00,,,0.00,Rainwise IP-100,2013-03-09 20:17:00,
2013-03-09 15:22:00,41.1,24.0,30.29,ESE,112,2.8,9.8,49,0.00,,,0.00,Rainwise IP-100,2013-03-09 20:22:00,
2013-03-09 15:27:00,41.3,24.0,30.29,ENE,67,3.7,10.0,49,0.00,,,0.00,Rainwise IP-100,2013-03-09 20:27:00,
2013-03-09 15:32:00,41.7,24.0,30.29,SSE,157,4.7,7.5,49,0.00,,,0.00,Rainwise IP-100,2013-03-09 20:32:00,
2013-03-09 15:37:00,41.7,24.0,30.29,ENE,67,4.4,7.5,49,0.00,,,0.00,Rainwise IP-100,2013-03-09 20:37:00,
2013-03-09 15:42:00,41.5,24.0,30.30,ENE,67,1.6,11.2,49,0.00,,,0.00,Rainwise IP-100,2013-03-09 20:42:00,
2013-03-09 15:47:00,41.0,24.0,30.30,SSE,157,2.3,14.5,50,0.00,,,0.00,Rainwise IP-100,2013-03-09 20:47:00,
2013-03-09 15:52:00,40.7,24.0,30.30,ENE,67,7.5,14.5,51,0.00,,,0.00,Rainwise IP-100,2013-03-09 20:52:00,
2013-03-09 15:57:00,40.5,26.0,30.30,NNE,22,1.9,16.1,52,0.00,,,0.00,Rainwise IP-100,2013-03-09 20:57:00,
2013-03-09 16:02:00,40.1,24.0,30.30,ESE,112,3.3,11.4,52,0.00,,,0.00,Rainwise IP-100,2013-03-09 21:02:00,
2013-03-09 16:07:00,39.9,24.0,30.30,NW,315,4.9,7.2,53,0.00,,,0.00,Rainwise IP-100,2013-03-09 21:07:00,
2013-03-09 16:12:00,39.7,24.0,30.30,NNE,22,1.6,7.7,53,0.00,,,0.00,Rainwise IP-100,2013-03-09 21:12:00,
2013-03-09 16:17:00,39.8,24.0,30.30,NE,45,1.2,7.7,53,0.00,,,0.00,Rainwise IP-100,2013-03-09 21:17:00,
2013-03-09 16:22:00,39.9,24.0,30.31,ESE,112,2.6,8.6,53,0.00,,,0.00,Rainwise IP-100,2013-03-09 21:22:00,
2013-03-09 16:27:00,39.6,24.0,30.30,ENE,67,3.0,12.6,53,0.00,,,0.00,Rainwise IP-100,2013-03-09 21:27:00,
2013-03-09 16:32:00,39.3,24.0,30.31,NNE,22,2.3,10.5,53,0.00,,,0.00,Rainwise IP-100,2013-03-09 21:32:00,
2013-03-09 16:37:00,39.1,24.0,30.31,ENE,67,6.3,15.4,54,0.00,,,0.00,Rainwise IP-100,2013-03-09 21:37:00,
2013-03-09 16:42:00,38.6,24.0,30.31,SSE,157,2.1,9.3,55,0.00,,,0.00,Rainwise IP-100,2013-03-09 21:42:00,
2013-03-09 16:47:00,38.0,24.0,30.31,ENE,67,2.8,6.8,56,0.00,,,0.00,Rainwise IP-100,2013-03-09 21:47:00,
2013-03-09 16:52:00,37.7,24.0,30.31,NNE,22,2.1,6.3,57,0.00,,,0.00,Rainwise IP-100,2013-03-09 21:52:00,
2013-03-09 16:57:00,37.4,24.0,30.31,ESE,112,2.3,8.4,58,0.00,,,0.00,Rainwise IP-100,2013-03-09 21:57:00,
2013-03-09 17:02:00,36.9,24.0,30.31,NE,45,5.1,5.6,59,0.00,,,0.00,Rainwise IP-100,2013-03-09 22:02:00,
2013-03-09 17:07:00,36.5,24.0,30.31,ENE,67,1.9,7.5,60,0.00,,,0.00,Rainwise IP-100,2013-03-09 22:07:00,
2013-03-09 17:12:00,36.2,24.0,30.32,NE,45,8.2,10.5,61,0.00,,,0.00,Rainwise IP-100,2013-03-09 22:12:00,
2013-03-09 17:17:00,35.9,24.0,30.32,NE,45,4.7,17.7,61,0.00,,,0.00,Rainwise IP-100,2013-03-09 22:17:00,
2013-03-09 17:22:00,35.6,24.0,30.32,NE,45,2.6,16.8,62,0.00,,,0.00,Rainwise IP-100,2013-03-09 22:22:00,
2013-03-09 17:27:00,35.4,23.0,30.32,SSE,157,0.0,17.0,62,0.00,,,0.00,Rainwise IP-100,2013-03-09 22:27:00,
2013-03-09 17:32:00,35.1,24.0,30.32,ESE,112,2.1,13.1,63,0.00,,,0.00,Rainwise IP-100,2013-03-09 22:32:00,
2013-03-09 17:37:00,34.8,24.0,30.33,East,90,4.9,12.4,64,0.00,,,0.00,Rainwise IP-100,2013-03-09 22:37:00,
2013-03-09 17:42:00,34.4,24.0,30.32,ENE,67,4.9,9.6,65,0.00,,,0.00,Rainwise IP-100,2013-03-09 22:42:00,
2013-03-09 17:47:00,34.1,24.0,30.33,ENE,67,12.4,16.1,65,0.00,,,0.00,Rainwise IP-100,2013-03-09 22:47:00,
2013-03-09 17:52:00,33.9,24.0,30.33,NE,45,6.1,15.6,66,0.00,,,0.00,Rainwise IP-100,2013-03-09 22:52:00,
2013-03-09 17:57:00,33.8,24.0,30.33,East,90,5.4,13.1,66,0.00,,,0.00,Rainwise IP-100,2013-03-09 22:57:00,
2013-03-09 18:02:00,33.5,24.0,30.33,ENE,67,4.4,18.0,67,0.00,,,0.00,Rainwise IP-100,2013-03-09 23:02:00,
2013-03-09 18:07:00,33.2,24.0,30.33,NE,45,6.8,13.8,67,0.00,,,0.00,Rainwise IP-100,2013-03-09 23:07:00,
2013-03-09 18:12:00,32.9,24.0,30.34,NNE,22,3.3,13.8,68,0.00,,,0.00,Rainwise IP-100,2013-03-09 23:12:00,
2013-03-09 18:17:00,32.7,24.0,30.34,ENE,67,1.6,11.2,69,0.00,,,0.00,Rainwise IP-100,2013-03-09 23:17:00,
2013-03-09 18:22:00,32.5,24.0,30.34,East,90,2.8,19.6,69,0.00,,,0.00,Rainwise IP-100,2013-03-09 23:22:00,
2013-03-09 18:27:00,32.4,24.0,30.34,NNW,337,2.6,12.8,70,0.00,,,0.00,Rainwise IP-100,2013-03-09 23:27:00,
2013-03-09 18:32:00,32.3,24.0,30.34,NE,45,7.9,14.9,70,0.00,,,0.00,Rainwise IP-100,2013-03-09 23:32:00,
2013-03-09 18:37:00,32.1,24.0,30.34,NE,45,5.8,15.9,71,0.00,,,0.00,Rainwise IP-100,2013-03-09 23:37:00,
2013-03-09 18:42:00,32.0,24.0,30.35,NE,45,3.0,13.5,71,0.00,,,0.00,Rainwise IP-100,2013-03-09 23:42:00,
2013-03-09 18:47:00,31.9,24.0,30.35,East,90,5.1,10.3,72,0.00,,,0.00,Rainwise IP-100,2013-03-09 23:47:00,
2013-03-09 18:52:00,31.8,24.0,30.35,ENE,67,4.2,15.4,72,0.00,,,0.00,Rainwise IP-100,2013-03-09 23:52:00,
2013-03-09 18:57:00,31.6,24.0,30.35,ENE,67,4.0,14.2,72,0.00,,,0.00,Rainwise IP-100,2013-03-09 23:57:00,
2013-03-09 19:02:00,31.4,23.0,30.35,ENE,67,5.6,9.1,73,0.00,,,0.00,Rainwise IP-100,2013-03-10 00:02:00,
2013-03-09 19:07:00,31.2,23.0,30.35,ENE,67,6.8,13.1,73,0.00,,,0.00,Rainwise IP-100,2013-03-10 00:07:00,
2013-03-09 19:12:00,31.1,24.0,30.35,ENE,67,4.9,14.2,74,0.00,,,0.00,Rainwise IP-100,2013-03-10 00:12:00,
2013-03-09 19:17:00,30.9,24.0,30.36,ENE,67,5.6,14.5,74,0.00,,,0.00,Rainwise IP-100,2013-03-10 00:17:00,
2013-03-09 19:22:00,30.8,24.0,30.36,NNE,22,1.6,11.0,75,0.00,,,0.00,Rainwise IP-100,2013-03-10 00:22:00,
2013-03-09 19:27:00,30.6,24.0,30.36,NNE,22,2.8,10.7,75,0.00,,,0.00,Rainwise IP-100,2013-03-10 00:27:00,
2013-03-09 19:32:00,30.4,24.0,30.36,ESE,112,1.9,18.0,76,0.00,,,0.00,Rainwise IP-100,2013-03-10 00:32:00,
2013-03-09 19:37:00,30.3,24.0,30.36,North,360,8.4,12.4,76,0.00,,,0.00,Rainwise IP-100,2013-03-10 00:37:00,
2013-03-09 19:42:00,30.1,24.0,30.36,ENE,67,3.0,9.1,77,0.00,,,0.00,Rainwise IP-100,2013-03-10 00:42:00,
2013-03-09 19:47:00,29.9,24.0,30.36,ENE,67,4.4,9.1,77,0.00,,,0.00,Rainwise IP-100,2013-03-10 00:47:00,
2013-03-09 19:52:00,29.8,24.0,30.36,NE,45,3.5,7.7,78,0.00,,,0.00,Rainwise IP-100,2013-03-10 00:52:00,
2013-03-09 19:57:00,29.6,24.0,30.36,East,90,2.6,7.9,78,0.00,,,0.00,Rainwise IP-100,2013-03-10 00:57:00,
2013-03-09 20:02:00,29.5,24.0,30.36,NE,45,4.9,9.6,78,0.00,,,0.00,Rainwise IP-100,2013-03-10 01:02:00,
2013-03-09 20:07:00,29.4,24.0,30.36,ENE,67,5.6,10.7,79,0.00,,,0.00,Rainwise IP-100,2013-03-10 01:07:00,
2013-03-09 20:12:00,29.4,24.0,30.36,NW,315,4.4,9.3,79,0.00,,,0.00,Rainwise IP-100,2013-03-10 01:12:00,
2013-03-09 20:17:00,29.4,24.0,30.36,ENE,67,6.3,11.4,79,0.00,,,0.00,Rainwise IP-100,2013-03-10 01:17:00,
2013-03-09 20:22:00,29.3,24.0,30.36,East,90,3.5,9.3,79,0.00,,,0.00,Rainwise IP-100,2013-03-10 01:22:00,
2013-03-09 20:27:00,29.2,24.0,30.36,ENE,67,3.5,10.5,80,0.00,,,0.00,Rainwise IP-100,2013-03-10 01:27:00,
2013-03-09 20:32:00,29.2,24.0,30.36,NNE,22,2.1,20.3,80,0.00,,,0.00,Rainwise IP-100,2013-03-10 01:32:00,
2013-03-09 20:37:00,29.2,24.0,30.35,NNE,22,6.3,13.8,80,0.00,,,0.00,Rainwise IP-100,2013-03-10 01:37:00,
2013-03-09 20:42:00,29.2,24.0,30.36,NNE,22,2.8,16.1,80,0.00,,,0.00,Rainwise IP-100,2013-03-10 01:42:00,
2013-03-09 20:47:00,29.2,24.0,30.36,ENE,67,6.8,11.7,80,0.00,,,0.00,Rainwise IP-100,2013-03-10 01:47:00,
2013-03-09 20:52:00,29.2,24.0,30.36,ESE,112,4.9,16.6,80,0.00,,,0.00,Rainwise IP-100,2013-03-10 01:52:00,
2013-03-09 20:57:00,29.1,24.0,30.35,NE,45,3.5,18.2,81,0.00,,,0.00,Rainwise IP-100,2013-03-10 01:57:00,
2013-03-09 21:02:00,29.0,24.0,30.35,ENE,67,3.5,9.6,81,0.00,,,0.00,Rainwise IP-100,2013-03-10 02:02:00,
2013-03-09 21:07:00,28.9,24.0,30.35,ESE,112,2.3,14.9,81,0.00,,,0.00,Rainwise IP-100,2013-03-10 02:07:00,
2013-03-09 21:12:00,28.8,24.0,30.35,ENE,67,3.0,13.8,81,0.00,,,0.00,Rainwise IP-100,2013-03-10 02:12:00,
2013-03-09 21:17:00,28.7,24.0,30.36,NNE,22,3.3,9.6,82,0.00,,,0.00,Rainwise IP-100,2013-03-10 02:17:00,
2013-03-09 21:22:00,28.5,24.0,30.36,NNE,22,4.7,7.0,82,0.00,,,0.00,Rainwise IP-100,2013-03-10 02:22:00,
2013-03-09 21:27:00,28.4,23.0,30.36,ESE,112,4.2,7.5,82,0.00,,,0.00,Rainwise IP-100,2013-03-10 02:27:00,
2013-03-09 21:32:00,28.2,23.0,30.36,NE,45,3.5,12.1,83,0.00,,,0.00,Rainwise IP-100,2013-03-10 02:32:00,
2013-03-09 21:37:00,28.0,23.0,30.36,ENE,67,5.1,8.6,83,0.00,,,0.00,Rainwise IP-100,2013-03-10 02:37:00,
2013-03-09 21:42:00,27.9,24.0,30.36,East,90,4.4,14.5,84,0.00,,,0.00,Rainwise IP-100,2013-03-10 02:42:00,
2013-03-09 21:47:00,27.7,24.0,30.36,ENE,67,9.3,19.8,84,0.00,,,0.00,Rainwise IP-100,2013-03-10 02:47:00,
2013-03-09 21:52:00,27.6,24.0,30.36,ENE,67,4.7,12.8,85,0.00,,,0.00,Rainwise IP-100,2013-03-10 02:52:00,
2013-03-09 21:57:00,27.6,24.0,30.36,East,90,4.9,11.2,85,0.00,,,0.00,Rainwise IP-100,2013-03-10 02:57:00,
2013-03-09 22:02:00,27.5,24.0,30.36,East,90,1.6,10.0,85,0.00,,,0.00,Rainwise IP-100,2013-03-10 03:02:00,
2013-03-09 22:07:00,27.4,24.0,30.36,ENE,67,1.6,8.6,86,0.00,,,0.00,Rainwise IP-100,2013-03-10 03:07:00,
2013-03-09 22:12:00,27.3,24.0,30.36,ENE,67,0.0,7.9,86,0.00,,,0.00,Rainwise IP-100,2013-03-10 03:12:00,
2013-03-09 22:17:00,27.2,24.0,30.37,NNE,22,1.4,7.0,86,0.00,,,0.00,Rainwise IP-100,2013-03-10 03:17:00,
2013-03-09 22:22:00,27.1,24.0,30.36,ESE,112,5.6,10.5,86,0.00,,,0.00,Rainwise IP-100,2013-03-10 03:22:00,
2013-03-09 22:27:00,27.0,24.0,30.37,NW,315,1.4,8.6,87,0.00,,,0.00,Rainwise IP-100,2013-03-10 03:27:00,
2013-03-09 22:32:00,26.9,24.0,30.38,SE,135,0.0,3.3,87,0.00,,,0.00,Rainwise IP-100,2013-03-10 03:32:00,
2013-03-09 22:37:00,26.8,24.0,30.38,NE,45,3.0,7.5,87,0.00,,,0.00,Rainwise IP-100,2013-03-10 03:37:00,
2013-03-09 22:42:00,26.7,24.0,30.38,ENE,67,3.7,5.1,87,0.00,,,0.00,Rainwise IP-100,2013-03-10 03:42:00,
2013-03-09 22:47:00,26.6,24.0,30.38,NNW,337,0.0,9.8,87,0.00,,,0.00,Rainwise IP-100,2013-03-10 03:47:00,
2013-03-09 22:52:00,26.4,23.0,30.39,North,360,1.2,8.9,88,0.00,,,0.00,Rainwise IP-100,2013-03-10 03:52:00,
2013-03-09 22:57:00,26.2,23.0,30.38,ENE,67,1.4,6.1,88,0.00,,,0.00,Rainwise IP-100,2013-03-10 03:57:00,
2013-03-09 23:02:00,26.0,23.0,30.39,NW,315,2.3,4.9,88,0.00,,,0.00,Rainwise IP-100,2013-03-10 04:02:00,
2013-03-09 23:07:00,25.8,23.0,30.38,East,90,2.6,6.8,89,0.00,,,0.00,Rainwise IP-100,2013-03-10 04:07:00,
2013-03-09 23:12:00,25.7,23.0,30.38,East,90,5.4,7.9,89,0.00,,,0.00,Rainwise IP-100,2013-03-10 04:12:00,
2013-03-09 23:17:00,25.7,24.0,30.39,ENE,67,5.1,8.2,90,0.00,,,0.00,Rainwise IP-100,2013-03-10 04:17:00,
2013-03-09 23:22:00,25.7,24.0,30.39,ENE,67,3.3,10.3,90,0.00,,,0.00,Rainwise IP-100,2013-03-10 04:22:00,
2013-03-09 23:27:00,25.8,24.0,30.38,NE,45,3.5,11.2,90,0.00,,,0.00,Rainwise IP-100,2013-03-10 04:27:00,
2013-03-09 23:32:00,25.9,24.0,30.38,NNE,22,2.6,8.2,90,0.00,,,0.00,Rainwise IP-100,2013-03-10 04:32:00,
2013-03-09 23:37:00,25.9,24.0,30.38,ENE,67,1.6,8.2,90,0.00,,,0.00,Rainwise IP-100,2013-03-10 04:37:00,
2013-03-09 23:42:00,25.9,24.0,30.38,NE,45,7.5,7.5,90,0.00,,,0.00,Rainwise IP-100,2013-03-10 04:42:00,
2013-03-09 23:47:00,25.9,24.0,30.38,ESE,112,2.8,12.8,90,0.00,,,0.00,Rainwise IP-100,2013-03-10 04:47:00,
2013-03-09 23:52:00,26.1,24.0,30.38,ENE,67,1.4,7.5,90,0.00,,,0.00,Rainwise IP-100,2013-03-10 04:52:00,
2013-03-09 23:57:00,26.1,24.0,30.38,SE,135,2.3,4.9,90,0.00,,,0.00,Rainwise IP-100,2013-03-10 04:57:00,